ATLAS CENTAUR 2 1 00694U 63047A 26063.59826251 .00001819 00000+0 21250-3 0 9995 2 00694 30.3520 224.0975 0547794 35.4158 328.1585 14.12049488130901 THOR AGENA D R/B 1 00733U 64002A 26063.49847069 .00000345 00000+0 14020-3 0 9990 2 00733 99.1228 76.5530 0031918 273.6080 86.1453 14.34016860237552 SL-3 R/B 1 00877U 64053B 26063.21716325 .00000545 00000+0 12943-3 0 9999 2 00877 65.0788 347.2804 0079525 293.9579 65.3208 14.61362693265994 SL-8 R/B 1 02802U 67045B 26063.24646190 .00000658 00000+0 18926-3 0 9990 2 02802 74.0137 358.2533 0063967 5.8072 354.3813 14.45616833 88237 SL-8 R/B 1 03230U 68040B 26063.18588991 .00005025 00000+0 37189-3 0 9994 2 03230 74.0330 324.9399 0024133 150.5849 209.6704 15.03212553 89182 OAO 2 1 03597U 68110A 26063.60901100 .00000385 00000+0 10873-3 0 9991 2 03597 34.9934 293.5909 0005311 164.7138 195.3714 14.47304420 18362 ISIS 1 1 03669U 69009A 26063.32101461 .00000252 00000+0 16286-3 0 9997 2 03669 88.4548 155.8939 1707827 99.9922 279.7323 11.30412469347924 SERT 2 1 04327U 70009A 26063.48136660 .00000008 00000+0 68023-4 0 9993 2 04327 99.2753 6.8601 0004846 168.3974 306.7688 13.58729301779183 SL-3 R/B 1 05118U 71028B 26063.59179334 .00050964 00000+0 61018-3 0 9993 2 05118 81.2340 58.3232 0013946 307.2430 52.7549 15.60630182987873 ASTEX 1 1 05560U 71089A 26063.23542145 .00000724 00000+0 18396-3 0 9996 2 05560 92.7130 149.9960 0017839 101.9487 258.3721 14.50763427861514 SL-8 R/B 1 05730U 71119B 26063.50836010 .00017770 00000+0 92268-3 0 9995 2 05730 73.8878 185.4005 0549734 153.1117 209.9702 14.37695577654741 OAO 3 (COPERNICUS) 1 06153U 72065A 26063.07233496 .00000549 00000+0 11701-3 0 9996 2 06153 35.0067 329.3200 0005997 118.3089 8.0632 14.59992742845375 ATLAS CENTAUR R/B 1 06155U 72065B 26063.15296047 .00001926 00000+0 26533-3 0 9997 2 06155 35.0028 338.2005 0034145 322.4837 37.3482 14.77669938840441 SL-8 R/B 1 08459U 75112B 26063.35568898 .00000338 00000+0 11977-3 0 9992 2 08459 74.0617 28.7234 0014548 124.1794 236.0742 14.38200081631101 SL-3 R/B 1 10114U 77057B 26063.60374689 .00017812 00000+0 37501-3 0 9990 2 10114 97.5761 235.3016 0006325 306.2188 53.8476 15.45323319667545 SEASAT 1 1 10967U 78064A 26063.03150160 .00000338 00000+0 13283-3 0 9994 2 10967 108.0122 113.6266 0002187 287.6768 72.4138 14.46155301505696 SL-14 R/B 1 11267U 79011B 26063.48316014 .00000839 00000+0 80208-4 0 9990 2 11267 82.5214 101.5126 0017580 76.4853 283.8324 14.91901552528003 SL-8 R/B 1 11574U 79089B 26063.54354643 .00000360 00000+0 11695-3 0 9995 2 11574 74.0673 100.5710 0017126 273.7451 86.1747 14.42346800435363 SL-14 R/B 1 11672U 80005B 26063.15718557 .00000787 00000+0 77037-4 0 9995 2 11672 82.5155 312.4838 0015694 176.3105 183.8233 14.90922933475660 SL-8 R/B 1 12139U 81003B 26063.56972731 .00022352 00000+0 57655-3 0 9999 2 12139 82.9388 294.7589 0262687 196.4181 162.8428 15.10736035313909 SL-3 R/B 1 12465U 81046B 26063.59287186 .00016794 00000+0 39235-3 0 9991 2 12465 81.2306 295.8648 0019988 39.5957 320.6741 15.41838384437647 SL-3 R/B 1 12904U 81103B 26063.57631122 .00008682 00000+0 38625-3 0 9993 2 12904 81.1575 219.4299 0012464 305.2367 54.7697 15.21300279972459 SL-3 R/B 1 13068U 82013B 26063.58653027 .00006658 00000+0 28897-3 0 9996 2 13068 81.1769 166.7502 0022345 194.6416 165.4172 15.21952942403571 SL-3 R/B 1 13154U 82039B 26063.55459631 .00003863 00000+0 23372-3 0 9990 2 13154 81.1581 221.8820 0029850 341.2034 18.8086 15.10044737380862 SL-3 R/B 1 13403U 82079B 26063.54812839 .00009486 00000+0 37909-3 0 9991 2 13403 81.1476 199.1467 0024849 182.0576 178.0560 15.24705928376919 SL-14 R/B 1 13553U 82092B 26063.32767595 .00000716 00000+0 77683-4 0 9997 2 13553 82.5703 146.4141 0019334 322.4519 105.9030 14.86660511328134 SL-3 R/B 1 13819U 83010B 26063.32505115 .00026546 00000+0 53683-3 0 9993 2 13819 81.1063 8.8216 0018387 68.0841 292.2356 15.46126696357114 SL-3 R/B 1 14208U 83075B 26063.54838008 .00016100 00000+0 42613-3 0 9997 2 14208 97.6135 67.9310 0019764 246.0015 113.9160 15.38268807329361 COSMOS 1536 1 14699U 84013A 26063.20379506 .00009517 00000+0 39379-3 0 9999 2 14699 82.5437 113.3040 0012778 304.9036 55.1000 15.23742162271781 SL-14 R/B 1 14820U 84027B 26063.50815746 .00000720 00000+0 79469-4 0 9996 2 14820 82.5381 249.8737 0017808 355.5835 4.5221 14.85970480246868 SL-8 R/B 1 15483U 85006B 26063.57274007 .00000207 00000+0 77487-4 0 9994 2 15483 74.0433 270.5650 0018657 189.5392 200.9949 14.37778746153290 SL-12 R/B(2) 1 15772U 85042D 26063.49712491 .00000172 00000+0 98860-4 0 9999 2 15772 71.1064 98.7002 0033475 136.6514 328.1502 14.21980911113650 SL-14 R/B 1 15945U 85069B 26063.35987473 .00000804 00000+0 88147-4 0 9998 2 15945 82.5274 29.9442 0018004 205.8051 154.2270 14.86426087172049 SL-16 R/B 1 16182U 85097B 26063.48267590 -.00000041 00000+0 35046-5 0 9993 2 16182 71.0036 151.5159 0009972 265.9650 174.8235 14.16599758 86496 SL-14 R/B 1 16496U 86006B 26063.06912488 .00000832 00000+0 86044-4 0 9999 2 16496 82.5234 265.0286 0075178 291.8180 67.5051 14.86806497148378 COSMOS 1743 1 16719U 86034A 26063.50500005 .00042977 00000+0 56884-3 0 9999 2 16719 82.5292 79.2709 0002144 329.5123 30.6007 15.58120300179440 SL-14 R/B 1 16792U 86046B 26063.48626885 .00000674 00000+0 74840-4 0 9996 2 16792 82.4782 85.0999 0021692 243.5622 116.3368 14.85584831125634 SL-14 R/B 1 16882U 86055B 26063.28112624 .00000677 00000+0 75204-4 0 9993 2 16882 82.5211 131.7576 0018652 354.8736 72.5980 14.85637357118565 AJISAI (EGS) 1 16908U 86061A 26063.66141268 -.00000070 00000+0 19014-3 0 9991 2 16908 50.0080 108.8103 0011252 274.0773 178.8178 12.44515578467370 COSMOS 1812 1 17295U 87003A 26063.60224106 .03107865 -12330-5 72970-3 0 9993 2 17295 82.4690 201.4045 0008805 282.8510 77.1800 16.29695900143668 SL-14 R/B 1 17567U 87024B 26063.52156990 .00000615 00000+0 67358-4 0 9995 2 17567 82.5253 97.6226 0016677 278.6310 81.3017 14.86126555 87366 COSMOS 1833 1 17589U 87027A 26063.19710831 -.00000127 00000+0 -42215-4 0 9990 2 17589 70.9233 337.5618 0024521 222.1554 137.7682 14.13056018 9545 SL-16 R/B 1 17590U 87027B 26063.61020130 -.00000175 00000+0 -63137-4 0 9994 2 17590 71.0016 287.1996 0003648 153.6984 206.4326 14.17166118 14620 SL-14 R/B 1 17912U 87038B 26063.10969137 .00000602 00000+0 66979-4 0 9997 2 17912 82.5012 302.0645 0019193 178.5946 181.5328 14.85363720 78409 COSMOS 1844 1 17973U 87041A 26063.37954001 -.00000064 00000+0 -81771-5 0 9993 2 17973 70.8995 45.3754 0029710 25.8252 334.4345 14.14553313 2837 SL-14 R/B 1 18153U 87055B 26063.22232260 .00000866 00000+0 96921-4 0 9999 2 18153 82.5029 354.1825 0021602 35.2994 324.9648 14.85622145 69129 COSMOS 1867 1 18187U 87060A 26063.13179151 .00000027 00000+0 47656-4 0 9991 2 18187 65.0119 322.2699 0014403 278.3036 81.6415 14.31502083 19140 SL-14 R/B 1 18749U 88001B 26063.48666816 .00000865 00000+0 97191-4 0 9997 2 18749 82.5144 200.2527 0016634 254.3437 105.5944 14.85520705 41258 COSMOS 1933 1 18958U 88020A 26063.51650869 .00005424 00000+0 26591-3 0 9996 2 18958 82.5095 256.0319 0003396 202.6274 157.4811 15.17928267 49448 SL-3 R/B 1 19046U 88032B 26063.59727193 .00007403 00000+0 34593-3 0 9991 2 19046 97.5183 46.8662 0024126 250.5282 109.3346 15.19837033 51334 SL-16 R/B 1 19120U 88039B 26063.48421867 .00000001 00000+0 23281-4 0 9998 2 19120 71.0130 79.5557 0022482 342.0203 18.0125 14.19615702957641 COSMOS 1953 1 19210U 88050A 26063.32279921 .00013390 00000+0 48175-3 0 9999 2 19210 82.5119 163.6431 0012207 139.8688 220.3455 15.28411280 36967 SL-8 R/B 1 19257U 88053B 26063.51956536 .00000374 00000+0 12970-3 0 9990 2 19257 74.0468 121.9967 0021320 302.0399 160.0341 14.38912365975855 COSMOS 1975 1 19573U 88093A 26063.22397468 .00011540 00000+0 42076-3 0 9993 2 19573 82.5197 123.1719 0011695 182.1757 177.9433 15.27974687 18577 SL-14 R/B 1 19574U 88093B 26063.48771285 .00000854 00000+0 95423-4 0 9996 2 19574 82.5295 46.9274 0022066 57.7631 65.2466 14.85649461 249 SL-16 R/B 1 19650U 88102B 26063.46603380 .00000046 00000+0 47301-4 0 9995 2 19650 71.0000 162.4875 0013619 9.5875 350.5505 14.16149548926157 INTERCOSMOS 24 1 20261U 89080A 26063.16309438 .00000905 00000+0 26921-3 0 9993 2 20261 82.6032 108.0033 1186813 305.6605 43.9526 12.59548100666105 SL-14 R/B 1 20262U 89080C 26063.35452787 .00000876 00000+0 26100-3 0 9997 2 20262 82.5971 176.6101 1230365 196.9414 158.6880 12.50486052659483 DELTA 1 R/B 1 20323U 89089B 26063.51659534 .00000492 00000+0 13001-3 0 9991 2 20323 97.0709 271.7780 0070148 138.0870 222.5728 14.50658344894989 ARIANE 40 R/B 1 20443U 90005H 26063.18474325 .00000401 00000+0 14118-3 0 9990 2 20443 98.3095 124.0100 0009518 215.6942 144.3611 14.39866455892010 DELTA 2 R/B(1) 1 20453U 90008B 26063.49710610 .00090827 00000+0 10876-2 0 9995 2 20453 35.6042 208.9123 0086560 210.6924 148.8729 15.55192361925328 COSMOS 2058 1 20465U 90010A 26063.41753029 .00006484 00000+0 38343-3 0 9990 2 20465 82.4667 52.6218 0009768 0.8805 359.2440 15.11265820941447 SL-14 R/B 1 20466U 90010B 26063.08882360 .00000557 00000+0 64601-4 0 9997 2 20466 82.4992 272.6512 0018891 321.9134 38.0744 14.83563470927655 SL-14 R/B 1 20511U 90018B 26063.50634765 .00000775 00000+0 94251-4 0 9993 2 20511 82.5193 227.9347 0017606 107.8051 252.5086 14.82138670921814 HST 1 20580U 90037B 26063.13533952 .00010319 00000+0 34382-3 0 9998 2 20580 28.4703 77.8870 0001724 70.3509 289.7272 15.29378725772468 SL-16 R/B 1 20625U 90046B 26063.11254067 -.00000180 00000+0 -68151-4 0 9992 2 20625 71.0000 309.6278 0016154 307.0897 52.8748 14.15014486847604 COSMOS 2084 1 20663U 90055A 26063.20949153 .00004465 00000+0 32073-3 0 9992 2 20663 62.7926 354.2678 0017956 188.7602 171.3188 15.05611914935498 SL-6 R/B(2) 1 20666U 90055D 26063.58368874 .00002776 00000+0 21563-3 0 9996 2 20666 62.7817 271.2152 0023967 345.7643 14.2778 15.03565724937424 SL-8 R/B 1 20775U 90078B 26062.99793982 .00020766 00000+0 61063-3 0 9996 2 20775 82.8989 256.4302 0363616 33.1204 329.2215 14.88836115808451 SL-8 R/B 1 21088U 91006B 26063.39501354 .00000073 00000+0 57987-4 0 9991 2 21088 82.9464 173.9817 0023349 52.6107 11.0797 13.77493534763346 OKEAN-3 1 21397U 91039A 26063.22629433 .00004808 00000+0 33850-3 0 9993 2 21397 82.5198 342.1351 0014281 358.1735 1.9436 15.04758384864213 COSMOS 2151 1 21422U 91042A 26063.54712018 .00002928 00000+0 23248-3 0 9994 2 21422 82.4928 88.6381 0014096 78.9728 281.3081 15.00081531862420 SL-14 R/B 1 21423U 91042B 26063.49071818 .00000710 00000+0 86799-4 0 9993 2 21423 82.4912 225.0577 0015620 257.1611 102.7858 14.81823576852309 ERS-1 1 21574U 91050A 26063.48399711 .00000476 00000+0 16692-3 0 9996 2 21574 98.7885 81.5877 0031341 216.0960 143.8111 14.39444979814981 ARIANE 40 R/B 1 21610U 91050F 26063.13125813 .00000424 00000+0 13953-3 0 9999 2 21610 98.2024 115.5761 0004362 93.2924 266.8765 14.42889010818191 INTERCOSMOS 25 1 21819U 91086A 26063.12651537 .00001733 00000+0 33299-3 0 9994 2 21819 82.6063 313.3703 1487059 128.9167 245.4246 12.11982538496013 SL-8 R/B 1 21876U 92008B 26063.13439132 .00000006 00000+0 -10063-4 0 9996 2 21876 82.9227 271.9119 0035269 148.4698 331.0453 13.75969799708651 SL-8 R/B 1 21938U 92020B 26063.38363259 .00000105 00000+0 92841-4 0 9995 2 21938 82.9341 157.7001 0027874 314.2233 113.7047 13.75548821700407 USA 81 1 21949U 92023A 26063.27975751 .00000261 00000+0 89261-4 0 9999 2 21949 85.0095 134.5619 0002602 81.8580 278.2908 14.32366052 94015 COSMOS 2219 1 22219U 92076A 26063.35712106 .00000306 00000+0 18506-3 0 9993 2 22219 71.0621 29.2143 0019292 214.1799 145.8083 14.14089889717626 SL-16 R/B 1 22220U 92076B 26063.47284111 .00000019 00000+0 33151-4 0 9993 2 22220 71.0000 199.3614 0010578 106.0891 318.3363 14.16860223721096 COSMOS 2221 1 22236U 92080A 26063.08646264 .00002785 00000+0 24463-3 0 9990 2 22236 82.5016 284.4495 0013541 206.5778 153.4751 14.96175748779959 SL-16 R/B 1 22285U 92093B 26063.29790013 -.00000143 00000+0 -48895-4 0 9997 2 22285 71.0239 15.5835 0006316 299.4224 60.6268 14.15449479712396 COSMOS 2228 1 22286U 92094A 26063.57437234 .00003487 00000+0 29883-3 0 9990 2 22286 82.5146 242.2092 0017114 322.9580 37.0460 14.97160171775299 SL-16 R/B 1 22566U 93016B 26063.47914963 .00000314 00000+0 18542-3 0 9990 2 22566 71.0060 226.1247 0011423 321.4318 38.5988 14.15305908701436 COSMOS 2242 1 22626U 93024A 26063.08631526 .00002348 00000+0 20393-3 0 9990 2 22626 82.5154 272.0778 0015557 328.9179 31.1121 14.96522155779552 SL-16 R/B 1 22803U 93059B 26063.32447448 .00000001 00000+0 24136-4 0 9994 2 22803 70.9921 22.4393 0018779 224.1741 135.7884 14.17232330678778 ARIANE 40 R/B 1 22830U 93061H 26063.18195960 .00000312 00000+0 13004-3 0 9996 2 22830 98.4928 132.1781 0009655 303.2942 56.7316 14.32857838693317 COSMOS 2278 1 23087U 94023A 26063.50561038 .00000308 00000+0 18561-3 0 9997 2 23087 71.0543 185.9417 0007692 23.7678 336.3799 14.14376329644075 SL-16 R/B 1 23088U 94023B 26063.48371222 -.00000117 00000+0 -35787-4 0 9999 2 23088 70.9987 81.8212 0005641 290.7503 69.3015 14.15013380645350 SL-16 R/B 1 23343U 94074B 26063.52970501 .00000689 00000+0 99054-4 0 9998 2 23343 97.7116 94.5563 0005440 230.3684 254.1669 14.79401252686489 SL-16 R/B 1 23405U 94077B 26063.25536438 -.00000230 00000+0 -93246-4 0 9998 2 23405 70.9851 3.9204 0003394 219.9110 140.1763 14.15562115615461 ARIANE 40+ R/B 1 23561U 95021B 26063.18078909 .00000433 00000+0 15201-3 0 9994 2 23561 98.4508 134.7378 0007401 151.3190 234.2081 14.39768032618455 SL-16 R/B 1 23705U 95058B 26063.47409966 .00000039 00000+0 44263-4 0 9990 2 23705 71.0211 191.2039 0010999 135.0151 225.1865 14.15492887567118 SL-16 R/B 1 24298U 96051B 26063.50030014 .00000105 00000+0 83516-4 0 9998 2 24298 70.7597 186.2217 0015547 155.7703 204.4151 14.12414119520911 ORBVIEW 2 (SEASTAR) 1 24883U 97037A 26063.39933558 .00000508 00000+0 19297-3 0 9996 2 24883 98.8556 227.5711 0003172 82.5160 277.6384 14.35490740507712 SL-16 R/B 1 25400U 98043G 26063.46934631 .00000096 00000+0 58924-4 0 9994 2 25400 98.8247 16.7961 0010459 34.7587 325.4274 14.26048412438244 SL-16 R/B 1 25407U 98045B 26063.48759336 -.00000174 00000+0 -63820-4 0 9992 2 25407 71.0113 192.5126 0006434 15.8870 344.2454 14.16189328426365 ISS (ZARYA) 1 25544U 98067A 26063.54402654 .00009464 00000+0 18311-3 0 9996 2 25544 51.6315 97.7962 0008198 156.3781 203.7585 15.48441338555534 CZ-4B R/B 1 25732U 99025C 26063.60401388 .00000086 00000+0 62565-4 0 9992 2 25732 98.6637 108.0059 0037032 1.3021 151.9685 14.18264240387448 OKEAN-O 1 25860U 99039A 26063.17689204 .00001003 00000+0 13839-3 0 9995 2 25860 97.9453 123.1241 0001428 70.7706 289.3660 14.80325784433574 SL-16 R/B 1 25861U 99039B 26063.16195114 .00000848 00000+0 11439-3 0 9997 2 25861 97.9977 122.2666 0013446 275.9477 84.0203 14.81723034436043 DELTA 2 R/B 1 25876U 99041E 26063.13230769 .00001895 00000+0 34235-3 0 9991 2 25876 51.7645 323.4770 0502347 332.0291 25.4449 14.11818994362246 HELIOS 1B 1 25977U 99064A 26063.33309934 .00003224 00000+0 36052-3 0 9998 2 25977 98.1701 325.4190 0002528 82.3724 277.7778 14.87673008684462 TERRA 1 25994U 99068A 26063.59679119 .00000645 00000+0 14056-3 0 9998 2 25994 97.9603 117.2259 0002377 163.6152 352.3892 14.61008698394332 SL-16 R/B 1 26070U 00006B 26063.50166887 .00000193 00000+0 12216-3 0 9996 2 26070 71.0013 108.7468 0017152 197.3762 162.6776 14.15824965347828 TITAN 4B R/B 1 26474U 00047B 26063.59458782 .00005982 00000+0 37412-3 0 9992 2 26474 67.9888 54.8363 0038114 41.4246 318.9782 15.09502793392146 ENVISAT 1 27386U 02009A 26063.47616368 .00000208 00000+0 81123-4 0 9993 2 27386 98.3720 17.1979 0001333 84.4592 25.6450 14.39034830258421 IDEFIX & ARIANE 42P R/B 1 27422U 02021B 26063.39169823 .00000431 00000+0 18028-3 0 9999 2 27422 98.5866 2.0614 0011272 198.2764 161.8015 14.31022003243269 AQUA 1 27424U 02022A 26063.61871009 .00001466 00000+0 30251-3 0 9994 2 27424 98.4166 30.8916 0000640 60.9696 353.8727 14.61962533267996 CZ-4B R/B 1 27432U 02024C 26063.57729847 .00000074 00000+0 60850-4 0 9995 2 27432 98.8850 117.0095 0050717 38.6002 133.7598 14.14546626228513 MIDORI II (ADEOS-II) 1 27597U 02056A 26063.48333721 .00000458 00000+0 19793-3 0 9999 2 27597 98.7761 21.9252 0001781 50.0959 310.0379 14.29280605209557 H-2A R/B 1 27601U 02056E 26063.48308938 .00000403 00000+0 15550-3 0 9994 2 27601 98.3194 24.0472 0070178 176.1427 295.4588 14.33756996213361 CZ-4B R/B 1 28059U 03049C 26063.50099525 .00000621 00000+0 15405-3 0 9998 2 28059 98.6874 58.2023 0047075 247.0745 112.5479 14.55014781185841 CZ-2C R/B 1 28222U 04012C 26063.17120259 .00071201 00000+0 75524-3 0 9993 2 28222 97.7244 127.9435 0013211 331.6844 28.3694 15.63762571203414 SL-16 R/B 1 28353U 04021B 26063.50713661 -.00000154 00000+0 -55300-4 0 9992 2 28353 70.9991 243.3689 0003757 19.6966 340.4301 14.14599523122106 CZ-4B R/B 1 28415U 04035C 26063.08471853 .00011746 00000+0 41410-3 0 9996 2 28415 97.3503 97.3943 0031572 351.8851 8.1874 15.28943125179053 CZ-2C R/B 1 28480U 04046B 26063.36688739 .00000173 00000+0 79149-4 0 9997 2 28480 98.1987 338.6819 0139558 170.1424 190.2547 14.26990151107749 ARIANE 5 R/B 1 28499U 04049H 26063.44529625 .00001197 00000+0 13803-3 0 9998 2 28499 98.2617 231.7063 0084315 8.9273 351.3417 14.85255229145017 CZ-2D R/B 1 28738U 05024B 26063.51322130 .00055259 00000+0 69165-3 0 9998 2 28738 97.3592 78.4707 0006663 60.5241 299.6680 15.59604071138973 ALOS (DAICHI) 1 28931U 06002A 26063.46521525 .00002196 00000+0 37616-3 0 9991 2 28931 98.1209 19.4472 0001116 51.1847 308.9458 14.69791465 72712 H-2A R/B 1 28932U 06002B 26063.39603697 .00015424 00000+0 77274-3 0 9997 2 28932 98.2401 209.9655 0051848 259.2061 100.3331 15.16285860 93631 RESURS-DK 1 1 29228U 06021A 26063.50997779 .00003809 00000+0 22311-3 0 9993 2 29228 69.9304 250.4226 0002412 165.2487 194.8750 15.12702247 86749 CZ-4B R/B 1 29507U 06046C 26063.13394819 .00007300 00000+0 36992-3 0 9995 2 29507 97.5602 108.0574 0031726 287.5080 72.2686 15.16836244 59205 CZ-2C R/B 1 31114U 07010B 26063.30122631 .00000186 00000+0 10477-3 0 9999 2 31114 98.3977 176.8503 0058044 310.5668 49.0465 14.20244085978951 COSMO-SKYMED 1 1 31598U 07023A 26063.58285075 .00005410 00000+0 48150-3 0 9995 2 31598 97.8860 254.5744 0000834 94.3084 265.8232 14.96487875 14147 COSMOS 2428 1 31792U 07029A 26063.50827164 .00000067 00000+0 61426-4 0 9995 2 31792 70.9424 214.2185 0008843 282.5735 77.4396 14.12944763963362 SL-16 R/B 1 31793U 07029B 26063.47476668 -.00000129 00000+0 -42180-4 0 9998 2 31793 70.9756 183.3458 0002397 277.7984 151.1636 14.14833777964632 KORONAS-FOTON 1 33504U 09003A 26063.57707152 .00016914 00000+0 37964-3 0 9990 2 33504 82.4280 281.1940 0010883 166.9286 193.2246 15.43184144944957 CZ-2C R/B 1 37731U 11030B 26063.48808779 .00002779 00000+0 35543-3 0 9991 2 37731 97.8536 20.8555 0052899 9.0193 106.6820 14.81198670789328 H-2A R/B 1 38341U 12025E 26063.50854385 .00005834 00000+0 52808-3 0 9999 2 38341 98.4719 30.1396 0043775 331.4913 28.3912 14.95112142747442 SHIJIAN-16 (SJ-16) 1 39358U 13057A 26063.60106858 .00002197 00000+0 21732-3 0 9991 2 39358 74.9733 194.7200 0015648 125.9336 234.3307 14.92313999670745 SL-4 R/B 1 39679U 14021B 26063.23963572 .00023997 00000+0 52583-3 0 9991 2 39679 51.6089 3.8618 0097968 83.1110 278.1008 15.38969611655432 ALOS-2 1 39766U 14029A 26063.57879413 .00004276 00000+0 57891-3 0 9999 2 39766 97.9205 162.2508 0001519 97.9773 262.1611 14.79482663636113 YAOGAN-29 1 41038U 15069A 26063.59911294 .00000349 00000+0 49664-4 0 9992 2 41038 98.0146 92.0148 0002229 43.8125 316.3265 14.82988418555125 ASTRO-H (HITOMI) 1 41337U 16012A 26063.27969878 .00005308 00000+0 31308-3 0 9994 2 41337 31.0006 31.4569 0010012 277.2839 82.6661 15.09959716551417 HXMT (HUIYAN) 1 42758U 17034A 26063.44586587 .00008265 00000+0 41223-3 0 9990 2 42758 43.0149 45.8240 0032380 203.8527 156.0821 15.17380699481741 SAOCOM 1A 1 43641U 18076A 26063.62970616 .00000883 00000+0 11747-3 0 9995 2 43641 97.8882 251.8737 0001325 82.1775 277.9589 14.82164315400619 H-2A R/B 1 43682U 18084L 26063.47397986 .00031408 00000+0 75106-3 0 9991 2 43682 98.8732 279.7485 0025810 42.8998 317.4252 15.41086443404974 SAOCOM 1B 1 46265U 20059A 26063.66092845 .00000237 00000+0 36318-4 0 9992 2 46265 97.8880 251.0023 0001409 81.3785 278.7588 14.82164871298000 CSS (TIANHE) 1 48274U 21035A 26063.53175525 .00024935 00000+0 29808-3 0 9998 2 48274 41.4656 239.5396 0006880 242.0703 117.9439 15.60393731276805 COSMOS 2550 1 48865U 21056A 26063.56155338 -.00000197 00000+0 -15184-6 0 9991 2 48865 67.1422 56.4431 0008378 270.0173 90.0021 15.33826875262677 CZ-2C R/B 1 52794U 22058K 26063.17532213 .00045844 00000+0 67772-3 0 9991 2 52794 50.1907 346.6454 0042178 177.4326 182.6868 15.53767749209278 CZ-2C R/B 1 54039U 22132E 26063.50153328 .00060531 00000+0 70215-3 0 9997 2 54039 97.2960 66.6628 0020700 107.7548 252.5971 15.61335970189561 GSLV R/B 1 54149U 22138AN 26063.30543674 .00005589 00000+0 48444-3 0 9991 2 54149 87.3887 168.1641 0022221 165.3258 194.8623 14.96730402183126 XRISM 1 57800U 23137A 26063.02731354 .00008362 00000+0 47679-3 0 9992 2 57800 31.0031 320.2862 0008160 341.2942 18.7396 15.11422447136930 ACS3 1 59588U 24077B 26063.45720899 .00025829 00000+0 20890-1 0 9991 2 59588 97.2108 5.7453 0055747 90.7142 270.0410 13.89335925 93474 SZ-21 MODULE 1 66515U 25246C 26063.53344539 .00046935 00000+0 41049-3 0 9992 2 66515 41.4731 235.0908 0001435 286.9627 73.1057 15.68084352 17266